Pagina principale
METAR-TAF:

METAR-TAF

Aeroporti :

Aeroporto di Rieti

Rieti, Italia

latitudine: 42-25N, longitudine: 012-51E, altezza: 389 m

Osservazione

Il bollettino è stato emesso 1 ora e 10 minuti fa, alle 16:50 UTC
Vento 6 kt da est/sud-est
Temperature 8°C
Umidità 87%
Pressione 1019 hPa
Visibilità: 8000 m
Nubi sparse ad un'altezza di 3000 ft

METAR: LIQN 201650Z 11006KT 8000 SCT030 08/06 Q1019

Ora: 19:00 (18:00 UTC)


TAF: mancante

Osservazioni e previsioni meteorologiche di più di 4000 aeroporti (messaggi METAR e TAF).

Le stazioni disponibili sono rappresentate dai dischi gialli e rossi sulla carta.

Puntare il mouse per vedere il nome della stazione.

Clicca sopra per visualizzare le osservazioni e previsioni meteorologiche.

Per cambiare la mappa : fare clic sui pulsanti verdi con una croce nera per ingrandire, il pulsante verde con un trattino per diminuire, o sulla freccia verde per le mappe adiacenti.


METAR-TAF: